Miscellaneous Local Product
Issued by NWS Hastings, NE

Home | Current Version | Previous Version | Text Only | Print | Product List | Glossary On
Versions: 1 2 3 4 5 6 7 8 9 10 11 12 13 14 15 16 17 18 19 20 21 22 23 24 25 26 27 28 29 30 31 32 33 34 35 36 37 38 39 40 41 42 43 44 45 46 47 48 49 50
000
AXUS43 KGID 180902
MISGRI

GID CWA HOURLY WEATHER ROUNDUP
NATIONAL WEATHER SERVICE HASTINGS NE
400 AM CDT SAT APR 18 2015

NOTE: "FAIR" INDICATES FEW OR NO CLOUDS BELOW 12,000 FEET WITH NO
SIGNIFICANT WEATHER AND/OR OBSTRUCTIONS TO VISIBILITY.

...SOUTH CENTRAL NEBRASKA...

CITY           SKY/WX    TMP DP  RH WIND       PRES   REMARKS
GRAND ISLAND   CLOUDY    57  53  86 E12       29.92F
HASTINGS       LGT RAIN  57  55  93 SE10      29.91F
KEARNEY        CLOUDY    55  52  88 SW9G28    29.94R THUNDER
ORD            CLOUDY    55  50  83 NE6       29.92F
YORK           CLOUDY    57  55  94 E8        29.93F
AURORA         CLOUDY    57  55  95 E10       29.93F
LEXINGTON      LGT RAIN  55  53  94 CALM      29.94F
HOLDREGE       LGT RAIN  54  52  92 W6        29.94R
HEBRON         CLOUDY    59  55  88 E3        29.92F

...NEBRASKA PANHANDLE...

CITY           SKY/WX    TMP DP  RH WIND       PRES   REMARKS
CHADRON        LGT RAIN  48  46  93 N5        30.01F FOG
ALLIANCE       LGT RAIN  45  44  97 NE6       29.98F
SCOTTSBLUFF    LGT RAIN  42  42 100 W8        29.98F
SIDNEY         LGT RAIN  41  39  93 NW16      29.97F

...WESTERN AND NORTH CENTRAL NEBRASKA...

CITY           SKY/WX    TMP DP  RH WIND       PRES   REMARKS
VALENTINE      CLOUDY    51  46  83 NE10      29.98F
AINSWORTH      LGT RAIN  52  51  95 NE9       29.98F
ONEILL         CLOUDY    54  50  86 N5        29.98F
BROKEN BOW     TSTM      55  52  89 SW15G23   29.95R FOG
IMPERIAL       CLOUDY    49  45  86 NW7       29.93F
NORTH PLATTE   RAIN      50  49  96 SW7       29.98R
MCCOOK         CLOUDY    51  48  89 N10       29.91F

...EASTERN NEBRASKA...

CITY           SKY/WX    TMP DP  RH WIND       PRES   REMARKS
NORFOLK        NOT AVBL
SO SIOUX CITY  CLOUDY    61  44  53 E7        29.97F
TEKAMAH        CLOUDY    60  50  69 NW7       29.96F
COLUMBUS       CLOUDY    59  48  67 E6        29.96F
ALBION         LGT RAIN  58  49  74 CALM      29.96F
OMAHA EPPLEY   CLOUDY    64  55  72 SE6       29.95F
OFFUTT AFB     CLOUDY    59  56  89 SE2       29.94F
MILLARD        CLOUDY    63  56  77 CALM      29.95F
LINCOLN        CLOUDY    57  54  89 CALM      29.95F
NEBRASKA CITY  CLOUDY    60  53  78 S5        29.96S
BEATRICE       CLOUDY    59  55  85 E3        29.93F
FALLS CITY     CLOUDY    59  55  87 NE3       29.93F

...NORTHERN KANSAS...

CITY           SKY/WX    TMP DP  RH WIND       PRES   REMARKS
GOODLAND       PTCLDY    41  40  96 N6        29.93S
HILL CITY      MOCLDY    50  48  93 N7        29.90F
NORTON         MOSUNNY   50  46  87 NW7       29.87F
PHILLIPSBURG   CLOUDY    55  55 100 NW7       29.90F
SMITH CENTER   CLOUDY    54  54 100 W13       29.93R
BELOIT         CLOUDY    59  55  88 SE3       29.90S
HAYS           MOCLDY    54  43  66 CALM      29.93S
RUSSELL        CLOUDY    54  52  93 NW9       29.92F
CONCORDIA      CLOUDY    59  57  93 SE3       29.91F
SALINA         CLOUDY    60  57  89 S6        29.91F
TOPEKA         CLOUDY    58  56  93 CALM      29.93F



USA.gov is the U.S. government's official web portal to all federal, state and local government web resources and services.